"Pseudo-MPEC" for ZTFDD01

Created 2020 Oct 22 3:07:25 UT using Find_Orb

Click here for an explanation of pseudo-MPECs

 
 Astrometry: 
     ZTFDD01  C2019 12 11S)042E`lb)Ri48Hq/B+YAXULQf`FHm*3(p2BbN%:=mSebIu]IS8PF51
     ZTFDD01  C2019 12 11^XPx$Sk.fM$RIf('wu4=9P%c%f2Tp2Gnj9S@A1rDxRMYOHGlwK%gF51
     ZTFDD01  C2019 12 11Ehub^ac,RcE_]@p/ena8'6:N]V%.5[v[IKw-3`m?Im$`3toxCVj$F51
     ZTFDD01  C2019 12 11F+-);2lQnh2=m/%oryre#XSR'+O7vS][`AvM3MAU_8HHq)=D(i/`F51
     ZTFDD01  C2020 01 01!8(HA?DtW%5xUbe)]@BOhEGqbkT,T:-qR6sM/=!fv6+R)hiI1?l0F51
     ZTFDD01  C2020 01 01@=LeqXs1fD=V=jeZl,0\JiT^XWoQI%qAR68d0$*TA`rf,22qn\g]F51
     ZTFDD01  C2020 01 01jKHuGKTsl`/_K?cUN^pF$v,6b#+xjhi^7k,bE%/,hnW.1f\o\\t2F51
     ZTFDD01  C2020 01 01h0tFos6^,vSw\oC;X)*L`l](-c[O,EJR;wCS9)OF[foX'NaeT!1lF51
     ZTFDD01  C2020 01 17'9yDW4tYDJtuGM4QWZ2w)DXW+D2,UXgIW2ZE`x$*#SYJZmU7'A40F51
     ZTFDD01  C2020 01 17emBJk.0fxIwd*BJ\F._Sgd44?K;;:%a!Q,/a,u90r#:nMPo[jHT\F51
     ZTFDD01  C2020 01 186Mb+hV1Iq2T#v;cq/sD2g8:-ObVRp8hCTNf095'%i*!^HsmAqZ//F52
     ZTFDD01  C2020 01 18t'=IisU_eD\@LH*e72jZpls?@:6IEtPxsiS2UQnO#qYhbE3wp%phF52
     ZTFDD01  C2020 01 18Dj(4kQY?[Pq.?K@Ni#Z`7H65y,:Iu8:#L_/`$D6vS/!s^W;7R:YCF52
     ZTFDD01  C2020 01 18O2)D\X\P6c5E#mi9CvDJ`VfmC.-Q745[Jmq)Zi(]]LPZHSYr959oF52
     ZTFDD01  C2020 01 26(\$j^/'LDw83wuHA$+$*68RCq%6,,idY8s:d0;0Cm_k4=Q8GAPdYF51
     ZTFDD01  C2020 01 26.wAstrometry,wQJViDJ-ZIXeIP)TBPuL*_Nc:]`ZkKkZooh1PkkF51
     ZTFDD01  C2020 01 26b-Ve7_@Yj;+tUZ8o=RoQDtvXilFTvkE8xV#5oCH_9T4nhL=_Xf6aF51
     ZTFDD01  C2020 01 26g[redacted;P3[_cM*!%`$o0=o;q]c_cDBF5D-VY8i;w,B[-GvepF51
     ZTFDD01  C2020 02 29.20530 08 20 07.11 +42 31 43.1    ~AB6b 21.1 GVNEOCPG96
     ZTFDD01  C2020 02 29.21211 08 20 06.90 +42 31 43.3    ~AB6b 20.9 GVNEOCPG96
     ZTFDD01  C2020 02 29.21949 08 20 06.63 +42 31 43.3    ~AB6b 20.7 GVNEOCPG96
     ZTFDD01  C2020 02 29.22665 08 20 06.43 +42 31 43.1    ~AB6b 20.6 GVNEOCPG96
     ZTFDD01  C2020 03 24,g4U\_9Ey%CDL2CYhq1qH=m*JoZjefWyA:_4_^7?[5kHXJj5v`D?F52
     ZTFDD01  C2020 03 24T(DIb44(E4J9M8yeO?cw3mf/oM.h'6fPyT',+9YDlxMdSlMUD;H0F52
     ZTFDD01  C2020 03 24$q]2`dInH[3)[?5NS3A+`+^-3nQNaRhEe(ch.2jiysJrby%ut16%F52
     ZTFDD01  C2020 03 24IClqt@h5MV4l^RZldJ\=w`5`9o53ZKm]H_UvZC2aSS7R3]p7s34ZF52
     ZTFDD01  C2020 03 24#NsrdaRiT58mDh'gh@!A1-.o$Eh74nbvf7rpE.b8RPtt+bn`^mlOF52
     ZTFDD01  C2020 04 21ql=cZ@WBpx#-ps,X5Dee9J[-0?g$1uWZ87TJ4$H7erdq+y;p4ciIF52
     ZTFDD01  C2020 04 22pyh^WS-14EHBo6FqM1jk(uDxEcf.,5X_#p=VK$A_ID\sZ(jbn4SPF52
     ZTFDD01  C2020 04 22/xN.;np!)O``EWqJ[ld_6FXq(HYv]fMFdU/YJ%Z-.uH.RsX4eBsBF52
     ZTFDD01  C2020 04 22+MK-`GjLtkk*T$T3_;vZc*f6T9MX[2+,@kTdq(/2cA@w6s:SWjs[F52
     ZTFDD01  C2020 10 07.51475 11 10 36.03 +28 25 54.0    ~A8LM 19.33rUNEOCPI41
     ZTFDD01  C2020 10 07.51947 11 10 36.42 +28 25 53.4    ~A8LM 19.32rUNEOCPI41
     ZTFDD01  C2020 10 07.52417 11 10 36.82 +28 25 51.9    ~A8LM 19.36rUNEOCPI41
     ZTFDD01  C2020 10 07.52888 11 10 37.23 +28 25 50.8    ~A8LM 19.35rUNEOCPI41
     ZTFDD01  C2020 10 07.53358 11 10 37.60 +28 25 49.3    ~A8LM 19.39rUNEOCPI41
     ZTFDD01  C2020 10 09.51734 11 13 25.78 +28 16 41.2    ~A9K7 18.95rVNEOCPI41
     ZTFDD01  C2020 10 09.52671 11 13 26.62 +28 16 38.8    ~A9K7 19.03rVNEOCPI41
     ZTFDD01  C2020 10 09.53140 11 13 26.97 +28 16 37.6    ~A9K7 19.33rVNEOCPI41
     ZTFDD01 9C2020 10 10l2bJHu/T;Tb%KkiBWRcR)ChV]A3c1aDWMa[u\DPQx80$]yFo,cG5G40
     ZTFDD01 9C2020 10 10,5li0YRv@QSH8iCN3M%2@ij#ijLuSsd_bVNsjZode2#k0+%7dkWTG40
     ZTFDD01 |C2020 10 1055w%arX5\qwmEp7Y?!EBhgx.F5rkGL\#_wuq22h0YgZpGKlv9Hc7H06
     ZTFDD01 |C2020 10 10Vd')UN/\d3uabmNt[8-#rWJL)pB@4O*;X_Cgu-qHcdv7y4EaVg_PH06
     ZTFDD01  C2020 10 10j\o0px:eVy.wOoxFq;dH,=\+@wbeGQU)?SRY.2+au]-GRKo_iQjcN88
     ZTFDD01  C2020 10 10)RcHTn#7HvkTUcbAjH)?_jf8[w+ggnpt1NZue\q07tSG!*];uJSkN88
     ZTFDD01  C2020 10 10_*vLKDvE/nMCCmn#qtQJvo-A!WNlpXBw)@s)*BVMe#-Z'$.2)*(cN88
     ZTFDD01  C2020 10 10e5*fF23pj/mM*g04cA;NDIb%'q8dUtM@/Wa/CN%37s;A:%/WFK+kN88
     ZTFDD01 @C2020 10 11tHJUs@N6mIy%d.Hlh6);+%/04fW_K3silC/uYVxY[A*.ct7$%p35675
     ZTFDD01 @C2020 10 11+SFj%$R)myLVN+2LHh:,P#A(_8oclicktC#u3\wk4Z^3,nal[g0)675
     ZTFDD01 @C2020 10 11UJ5_(o'dT?3here(b6WOrUA-5Ytv(\hcIRFYW5_*yIfor8r6@4MR675
     ZTFDD01 KC2020 10 18dy-_,vr'r=:c@Gcy$xr=(K@tDVoX]GB].[i*TJWTAKrbr[;PZgm9204
     ZTFDD01 KC2020 10 18gk7D`o'-ldoM.y[206.6bpbwe91-`(FNs]L3,-@xLi4BaFSQTCm$204
     ZTFDD01 KC2020 10 19+kjDw+^w3W49jtFdsLSS`v:a)FoL9texplanationW^V;o;yFNW4L01
     ZTFDD01 KC2020 10 19A!.Af[ns4TI)oROe$B_6'WlvL-uL5,`V.nwNPEGdTKmI#v4\ssrPL01
     ZTFDD01 KC2020 10 19PV%K(:XhJ@7!HgGI+UtS$xO9Zf,q$,M)X0wjRG0iX0#'XVo]TxPhL01
     ZTFDD01 KC2020 10 19!NWgRdo5v%2f13P!ib1mCM%yv-OFu*=#;*/%yDUX0ujw%EggV4e^L01
     ZTFDD01 KC2020 10 19m4dLc0!mMY/2hh13xDwshuy3@i*_'QX;^%L_MSr6eaXQtVuK*c]vL01
     ZTFDD01  C2020 10 19.52242 11 27 38.24 +27 32 31.5    ~AJEq 19.06rVNEOCPI41
     ZTFDD01  C2020 10 19.52715 11 27 38.66 +27 32 30.1    ~AJEq 19.04rVNEOCPI41
     ZTFDD01  C2020 10 19.53187 11 27 39.06 +27 32 28.8    ~AJEq 19.05rVNEOCPI41
     ZTFDD01  C2020 10 19.53660 11 27 39.47 +27 32 28.0    ~AJEq 18.97rVNEOCPI41
     ZTFDD01  C2020 10 19.54133 11 27 39.85 +27 32 26.9    ~AJEq 19.05rVNEOCPI41
     ZTFDD01  C2020 10 21.52492 11 30 29.50 +27 24 07.6    ~ALIb 19.03rVNEOCPI41
     ZTFDD01  C2020 10 21.52958 11 30 29.89 +27 24 06.4    ~ALIb 19.05rVNEOCPI41
     ZTFDD01  C2020 10 21.53426 11 30 30.30 +27 24 05.2    ~ALIb 19.06rVNEOCPI41
     ZTFDD01  C2020 10 21.53894 11 30 30.71 +27 24 04.1    ~ALIb 19.07rVNEOCPI41
     ZTFDD01  C2020 10 21.54361 11 30 31.08 +27 24 03.1    ~ALIb 18.96rVNEOCPI41

Station data:
(204) Schiaparelli Observatory  (N45.867933 E8.770800)  Italy.  Observer L.
   Buzzi. 0.60-m f/4.64 Newtonian + CCD.
(675) Palomar Mountain  (N33.354120 W116.862540)  US/California.
(F51) Pan-STARRS 1, Haleakala  (N20.707235 W156.255910)  US/Hawaii.
   Observers N. Primak, A. Schultz, S. Watters, J. Thiel, T. Goggia. Measurer
   PS1 Science Consortium. 1.8-m Ritchey-Chrétien + CCD.
(F52) Pan-STARRS 2, Haleakala  (N20.707384 W156.255910)  US/Hawaii. 1.8-m
   Ritchey-Chrétien + CCD.
(G40) Slooh.com Canary Islands Observatory  (N28.299720 W16.508260)  Canary
   Islands (Spain).  Observers G. Gašparović, Y. Chen. 0.43-m f/6.8 Corrected
   Dall-Kirkham + CCD.
(G96) Mt. Lemmon Survey  (N32.442754 W110.788720)  US/Arizona.  Observers T.
   A. Pruyne, B. M. Africano, E. J. Christensen, G. A. Farneth, D. C. Fuls,
   A. R. Gibbs, A. D. Grauer, H. Gröller, J. A. Johnson, R. A. Kowalski, S.
   M. Larson, G. J. Leonard, D. Rankin, R. L. Seaman, F. C. Shelly. 1.5-m
   reflector + 10K CCD.
(H06) RAS Observatory, Mayhill  (N32.903325 W105.528700)  US/New
   Mexico.  Observers E. Guido, G. Sostero, V. Gonano, L. Donato.
(I41) Palomar Mountain--ZTF  (N33.357340 W116.859780)  US/California. 1.2-m
   f/2.44 Oschin Schmidt + CCD.
(L01) Višnjan Observatory, Tičan  (N45.290900 E13.749300)  Croatia.
   Observers K. Korlević, E. Pettarin. Measurer E. Pettarin. 1.0-m f/2.9
   reflector + CCD.
(N88) Xingming Observatory #3, Nanshan  (N43.471787 E87.173220)  China.

Orbital elements:  ZTFDD01
   Perihelion 2021 Jul 11.116707 +/- 0.00855 TT =  2:48:03 (JD 2459406.616707)
Epoch 2020 Oct 21.0 TT = JDT 2459143.5   Ne: 0.7125           AutoNEOCP
M 359.95664785 +/- 0.00039          (J2000 ecliptic)
n   0.00016476 +/- 1.49e-6          Peri.  150.35221 +/- 0.0006
a 329.529710 +/- 2                  Node    83.05613 +/- 0.00021
e   0.9937630 +/- 3.78e-5           Incl.   27.87331 +/- 0.00009
P5981.94                   H 13.4   G  0.15   U  3.7  
q 2.05526719 +/- 5.34e-5    Q 657.004154 +/- 3.95
From 67 observations 2019 Dec. 11-2020 Oct. 21; mean residual 0".43
Residuals in arcseconds: 
191211 F51  .39-  .17-    200324 F52  .19+  .26+    201010 N88  .92-  .49+    
191211 F51  .49-  .21-    200324 F52  .24+  .40+    201011 675  1.1+  .63+    
191211 F51  .46-  .40-    200324 F52  .12-  .67+    201011 675  1.2+  .58-    
191211 F51  .67-  .63+    200324 F52  .12+  .69+    201011 675  1.5+  .30+    
200101 F51  .41-  .57-    200421 F52  .26-  .99+    201018 204  .52-  .14+    
200101 F51  .11-  .46-    200422 F52  .19-  .94+    201018 204  .57-  .00     
200101 F51  .10-  .22-    200422 F52  .24-  1.1+    201019 L01  .25-  .11-    
200101 F51  .06+  .28-    200422 F52  .22-  .80+    201019 L01  .52-  .28+    
200117 F51  .35+  .15-    201007 I41  .18+  .53-    201019 L01  .60-  .17+    
200117 F51  .15-  .30-    201007 I41  .06+  .16+    201019 L01  .02+  .04-    
200118 F52  .12-  .36-    201007 I41  .09+  .06-    201019 L01  .29-  .05-    
200118 F52  .42+  .45-    201007 I41  .25+  .13+    201019 I41  .17-  .25-    
200118 F52  .25+  .40-    201007 I41  .11-  .09-    201019 I41  .06+  .47-    
200118 F52  .03+  .76-    201009 I41  .30-  .20-    201019 I41  .03+  .60-    
200126 F51  .33+  .00     201009 I41  .31+  .07-    201019 I41  .12+  .22-    
200126 F51  .54+  .16-    201009 I41  .31-  .01-    201019 I41  .18-  .14-    
200126 F51  .48+  .12-    201010 G40  .07+  .35+    201021 I41  .10-  .37-    
200126 F51  .51+  .21-    201010 G40  .21-  1.3+    201021 I41  .20-  .43-    
200229 G96  .16-  .27+    201010 H06  .31-  .08-    201021 I41  .05-  .48-    
200229 G96  .01+  .31+    201010 H06  .39-  .35-    201021 I41  .09+  .44-    
200229 G96  .29-  .14+    201010 N88  .04+  .17+    201021 I41  .28-  .30-    
200229 G96  .11+  .23-    201010 N88  .41-  .46-    
200324 F52  .01-  .34+    201010 N88  .61+  .29-    

Ephemerides (geocentric):
Date (UTC) HH   RA              Dec         delta   r     elong  mag " sig PA
---- -- -- --  -------------   -----------  ------ ------ -----  --- ---- ---
2020 10 22 03  11 31 20.732   +27 21 39.68  4.1346 3.5871  50.6 20.0 .047 122
2020 10 22 04  11 31 24.299   +27 21 29.36  4.1339 3.5867  50.7 20.0 .048 122
2020 10 22 05  11 31 27.865   +27 21 19.05  4.1331 3.5864  50.7 20.0 .048 122
2020 10 22 06  11 31 31.431   +27 21 08.75  4.1324 3.5860  50.7 20.0 .048 122
